Weather History for Wolf Point, MT

Change the Weather History Date:

Thursday, November 14, 2013

  Actual Average Record
Temperature  
Mean Temperature 36 °F -  
Max Temperature 51 °F 41 °F 62 °F (1999)
Min Temperature 21 °F 16 °F -17 °F (2014)
Degree Days  
Heating Degree Days 29    
Cooling Degree Days 0    
Moisture  
Dew Point 27 °F    
Average Humidity 75    
Maximum Humidity 89    
Minimum Humidity 48    
Precipitation  
Precipitation 0.00 in 0.02 in 0.01 in (2010)
Month to date precipitation 0.13 0.23  
Year to date precipitation 13.17 11.72  
Sea Level Pressure  
Sea Level Pressure 29.87 in    
Wind  
Wind Speed 7 mph (WSW)    
Max Wind Speed 14 mph    
Max Gust Speed -    
Visibility 10 miles    
Events      
T = Trace of Precipitation, MM = Missing Value Source: NWS Daily Summary

Daily Weather History Graph

Daily Weather History Graph

Search for Another Location

Airport:

Trip Planner

Search our weather history database for the weather conditions in past years. The results will help you decide how hot, cold, wet, or windy it might be!

Date:

Astronomy

Nov. 14, 2013 Rise Set
Actual Time 7:07 AM MST 4:25 PM MST
Civil Twilight 6:34 AM MST 4:59 PM MST
Nautical Twilight 5:56 AM MST 5:36 PM MST
Astronomical Twilight 5:19 AM MST 6:13 PM MST
Moon 2:58 PM MST (11/14) 3:53 AM MST (11/14)
Length of Visible Light 10h 25m
Length of Day
9h 17m
Waxing Gibbous, 92% of the Moon is Illuminated
Nov 14
Waxing Gibbous
Nov 17
Full
Nov 25
Last Quarter
Dec 2
New
Dec 9
First Quarter

Hourly Weather History & Observations

Time (MST) Temp. Windchill Dew Point Humidity Pressure Visibility Wind Dir Wind Speed Gust Speed Precip Events Conditions
12:53 AM 35.1 °F 28.6 °F 30.0 °F 82% 29.99 in 10.0 mi West 8.1 mph - N/A   Clear
1:53 AM 33.1 °F 24.9 °F 28.9 °F 85% 29.98 in 10.0 mi West 10.4 mph - N/A   Clear
2:53 AM 30.9 °F 26.2 °F 28.0 °F 89% 29.97 in 10.0 mi WSW 4.6 mph - N/A   Clear
3:53 AM 30.9 °F 22.8 °F 28.0 °F 89% 29.96 in 10.0 mi West 9.2 mph - N/A   Partly Cloudy
4:53 AM 32.0 °F 24.8 °F 28.9 °F 88% 29.96 in 10.0 mi WSW 8.1 mph - N/A   Mostly Cloudy
5:53 AM 33.1 °F 24.9 °F 28.9 °F 85% 29.94 in 10.0 mi SW 10.4 mph - N/A   Overcast
6:53 AM 34.0 °F 28.8 °F 28.0 °F 79% 29.94 in 10.0 mi South 5.8 mph - N/A   Overcast
7:53 AM 34.0 °F 31.0 °F 28.0 °F 79% 29.93 in 10.0 mi South 3.5 mph - N/A   Scattered Clouds
8:53 AM 37.0 °F 30.4 °F 30.0 °F 76% 29.93 in 10.0 mi West 9.2 mph - N/A   Overcast
9:53 AM 39.0 °F 32.8 °F 30.0 °F 70% 29.92 in 10.0 mi West 9.2 mph - N/A   Mostly Cloudy
10:53 AM 43.0 °F 37.2 °F 30.9 °F 62% 29.90 in 10.0 mi West 10.4 mph - N/A   Mostly Cloudy
11:53 AM 48.9 °F - 33.1 °F 54% 29.86 in 10.0 mi SW 10.4 mph - N/A   Mostly Cloudy
12:53 PM 48.9 °F - 32.0 °F 52% 29.86 in 10.0 mi WSW 13.8 mph - N/A   Scattered Clouds
1:53 PM 50.0 °F - 32.0 °F 50% 29.84 in 10.0 mi West 12.7 mph - N/A   Clear
2:53 PM 50.0 °F - 30.9 °F 48% 29.83 in 10.0 mi West 9.2 mph - N/A   Clear
3:53 PM 46.9 °F - 30.0 °F 52% 29.82 in 10.0 mi WSW 6.9 mph - N/A   Clear
4:53 PM 37.0 °F 31.6 °F 28.0 °F 70% 29.82 in 10.0 mi SSW 6.9 mph - N/A   Clear
5:53 PM 30.9 °F 26.2 °F 26.1 °F 82% 29.83 in 10.0 mi SW 4.6 mph - N/A   Clear
6:53 PM 28.9 °F - 24.1 °F 82% 29.82 in 10.0 mi Calm Calm - N/A   Clear
7:53 PM 26.1 °F - 21.0 °F 81% 29.81 in 10.0 mi Calm Calm - N/A   Clear
8:53 PM 24.1 °F - 19.9 °F 84% 29.79 in 10.0 mi Calm Calm - N/A   Clear
9:53 PM 21.0 °F - 18.0 °F 88% 29.77 in 10.0 mi Calm Calm - N/A   Clear
10:53 PM 24.1 °F - 19.9 °F 84% 29.75 in 10.0 mi Calm Calm - N/A   Mostly Cloudy
11:53 PM 27.0 °F - 24.1 °F 89% 29.71 in 10.0 mi Calm Calm - N/A   Overcast